Content
SEND FEEDBACK

Daily
Averages
Monthly
Summary
Canada

BANFF, ALBERTA


Home > North America > Canada > Alberta
Elevation: 4583 feet     Latitude: 51 11N     Longitude: 115 34W

WEATHER
 
SELECT A DAY
Number of Records: 132,624;   Date Range: 1/1/95 - 9/21/14
 
SHARE

PRINT THIS DATA

[ ← Previous Day ]
WEATHER ALMANAC - JANUARY 21, 2013
[ Next Day → ]
[ °C ]   °F
Weather ElementAverageHighLow
Temperature27.5 °F35.6 °F (4:00 pm)17.6 °F (1:00 am)
Dewpoint14.7 °F16.7 °F (4:00 am)12 °F (1:00 am)
Humidity60 %79 % (1:00 am)41 % (3:00 pm)
Barometer30.19 in30.32 in (1:00 am)30.10 in (3:00 pm)
Wind Speed9.7 mph12.7 mph (8:00 am)
Wind Gust19.6 mph (9:00 am)
Weather ElementAverage
Wind DirectionSW (230 °)

Weather ElementTotal
Precipitation---
Heating Degree Days38.4 (Base 65)
Averaged from 20 records on January 21, 2013
WEATHER CONDITIONS BREAKOUT
WIND DIRECTION BREAKOUT
WEATHER BY HOUR - JANUARY 21, 2013
[ °C ]   °F
Local TimeTemperatureDewpointHumidityBarometerVisibilityWind DirectionWind SpeedGust SpeedPrecipitationEventsConditions
1:00 AM17.6 °F12.0 °F79 %30.32 inSW (220°)8.1 mph
3:00 AM23.9 °F16.5 °F73 %30.27 inSW (230°)9.2 mph
4:00 AM24.6 °F16.7 °F72 %30.27 inSSW (200°)4.6 mph
7:00 AM23.5 °F15.4 °F71 %30.25 inWSW (240°)8.1 mph
8:00 AM22.6 °F15.4 °F74 %30.24 inWSW (240°)12.7 mph18.4 mph
9:00 AM21.7 °F14.7 °F74 %30.26 inSW (230°)12.7 mph19.6 mph
10:00 AM23.7 °F14.9 °F69 %30.26 inWSW (240°)10.4 mph
11:00 AM26.4 °F14.7 °F61 %30.24 inSW (230°)10.4 mph17.3 mph
12:00 PM28.8 °F14.4 °F55 %30.19 inSW (220°)10.4 mph
1:00 PM31.5 °F14.4 °F49 %30.14 inSW (230°)11.5 mph
2:00 PM33.6 °F14.0 °F45 %30.12 inSW (230°)11.5 mph
3:00 PM35.4 °F14.0 °F41 %30.10 inWSW (240°)9.2 mph
4:00 PM35.6 °F14.0 °F41 %30.10 inWSW (240°)10.4 mph17.3 mph
5:00 PM31.6 °F14.7 °F50 %30.10 inWSW (250°)8.1 mph
6:00 PM31.8 °F13.8 °F47 %30.12 inWSW (240°)10.4 mph18.4 mph
7:00 PM29.5 °F14.5 °F54 %30.13 inSW (230°)10.4 mph18.4 mph
8:00 PM29.3 °F14.5 °F54 %30.14 inSW (220°)8.1 mph
9:00 PM27.7 °F15.3 °F60 %30.14 inSW (220°)9.2 mph
10:00 PM26.1 °F15.4 °F64 %30.15 inSW (220°)10.4 mph18.4 mph
11:00 PM25.2 °F15.6 °F67 %30.16 inSW (230°)8.1 mph
Hourly data recorded from CWZG, located miles away from Banff, Alberta







STORIES FROM OUR PARTNERS